LGL12F LFPG-ELLX

Flight info

Callsign LGL12F
Flight time 0h 32m
Altitude 19000
Route DIKOL J10 SUIPE M163 MMD
Aircraft DH8D/M-SDE2E3FGRY/H

Departure

Time 2026-05-08 15:36
Airport Charles de Gaulle International Airport (LFPG)

Arrival

Time 2026-05-08 16:08
Airport Luxembourg-Findel International Airport (ELLX)
Time Latitude Longitude Altitude Speed Heading
2026-05-08 15:06 49.00390 2.59767 337 ft 0 kts 85°
2026-05-08 15:19 49.00390 2.59768 336 ft 0 kts 85°
2026-05-08 15:20 49.00389 2.59762 337 ft 2 kts 85°
2026-05-08 15:20 49.00389 2.59748 337 ft 1 kts 85°
2026-05-08 15:20 49.00384 2.59727 337 ft 2 kts 55°
2026-05-08 15:20 49.00374 2.59712 337 ft 2 kts 26°
2026-05-08 15:21 49.00360 2.59707 336 ft 1 kts 358°
2026-05-08 15:21 49.00355 2.59707 336 ft 0 kts 354°
2026-05-08 15:23 49.00356 2.59707 336 ft 0 kts 354°
2026-05-08 15:23 49.00358 2.59707 336 ft 2 kts 355°
2026-05-08 15:24 49.00391 2.59704 337 ft 6 kts 342°
2026-05-08 15:24 49.00415 2.59632 337 ft 10 kts 282°
2026-05-08 15:24 49.00478 2.59593 338 ft 9 kts 355°
2026-05-08 15:24 49.00545 2.59585 339 ft 9 kts 355°
2026-05-08 15:25 49.00621 2.59577 340 ft 14 kts 354°
2026-05-08 15:25 49.00755 2.59559 341 ft 19 kts 355°
2026-05-08 15:25 49.00872 2.59535 342 ft 14 kts 326°
2026-05-08 15:25 49.00916 2.59406 342 ft 14 kts 332°
2026-05-08 15:26 49.00995 2.59327 343 ft 16 kts 266°
2026-05-08 15:26 49.00984 2.59132 343 ft 19 kts 264°
2026-05-08 15:26 49.00954 2.58946 344 ft 16 kts 253°
2026-05-08 15:26 49.00943 2.58783 344 ft 16 kts 264°
2026-05-08 15:27 49.00933 2.58577 346 ft 21 kts 264°
2026-05-08 15:27 49.00920 2.58333 349 ft 24 kts 264°
2026-05-08 15:27 49.01050 2.58223 351 ft 25 kts 355°
2026-05-08 15:27 49.01223 2.58202 353 ft 23 kts 355°
2026-05-08 15:28 49.01360 2.58182 356 ft 18 kts 353°
2026-05-08 15:28 49.01496 2.58167 358 ft 19 kts 358°
2026-05-08 15:28 49.01634 2.58152 362 ft 19 kts 358°
2026-05-08 15:28 49.01772 2.58135 366 ft 19 kts 353°
2026-05-08 15:29 49.01905 2.58104 369 ft 20 kts 340°
2026-05-08 15:29 49.02046 2.57942 373 ft 28 kts 300°
2026-05-08 15:29 49.02085 2.57646 375 ft 28 kts 265°
2026-05-08 15:29 49.02071 2.57367 377 ft 23 kts 264°
2026-05-08 15:30 49.02058 2.57128 378 ft 22 kts 265°
2026-05-08 15:30 49.02046 2.56900 380 ft 20 kts 265°
2026-05-08 15:30 49.02030 2.56637 382 ft 29 kts 265°
2026-05-08 15:30 49.02030 2.56360 382 ft 22 kts 302°
2026-05-08 15:31 49.02095 2.56151 384 ft 23 kts 265°
2026-05-08 15:31 49.02080 2.55858 383 ft 32 kts 266°
2026-05-08 15:31 49.02061 2.55498 382 ft 33 kts 265°
2026-05-08 15:31 49.02046 2.55183 380 ft 27 kts 265°
2026-05-08 15:32 49.02032 2.54914 378 ft 24 kts 264°
2026-05-08 15:32 49.02018 2.54673 377 ft 24 kts 264°
2026-05-08 15:32 49.02001 2.54379 376 ft 27 kts 265°
2026-05-08 15:32 49.01971 2.54147 375 ft 16 kts 213°
2026-05-08 15:33 49.01893 2.54017 373 ft 19 kts 266°
2026-05-08 15:33 49.01882 2.53798 374 ft 22 kts 261°
2026-05-08 15:33 49.01868 2.53568 374 ft 21 kts 266°
2026-05-08 15:33 49.01856 2.53365 375 ft 18 kts 264°
2026-05-08 15:34 49.01846 2.53175 375 ft 16 kts 265°
2026-05-08 15:34 49.01891 2.53039 376 ft 16 kts 355°
2026-05-08 15:34 49.01988 2.53031 379 ft 13 kts 353°
2026-05-08 15:34 49.02090 2.53018 380 ft 13 kts 356°
2026-05-08 15:35 49.02156 2.53071 381 ft 10 kts 81°
2026-05-08 15:35 49.02161 2.53236 382 ft 40 kts 88°
2026-05-08 15:35 49.02213 2.54142 381 ft 124 kts 85°
2026-05-08 15:35 49.02281 2.55643 582 ft 154 kts 85°
2026-05-08 15:36 49.02313 2.57316 1180 ft 163 kts 88°
2026-05-08 15:36 49.02388 2.59066 1790 ft 173 kts 85°
2026-05-08 15:36 49.02494 2.61020 2105 ft 197 kts 84°
2026-05-08 15:36 49.02615 2.63108 2750 ft 202 kts 84°
2026-05-08 15:37 49.02740 2.65239 3370 ft 204 kts 85°
2026-05-08 15:37 49.02866 2.67398 3906 ft 209 kts 85°
2026-05-08 15:37 49.02983 2.69581 4519 ft 210 kts 85°
2026-05-08 15:37 49.03101 2.71813 5121 ft 212 kts 86°
2026-05-08 15:38 49.03208 2.74042 5706 ft 215 kts 86°
2026-05-08 15:38 49.03309 2.76296 6289 ft 217 kts 86°
2026-05-08 15:38 49.03417 2.78594 6862 ft 220 kts 86°
2026-05-08 15:38 49.03529 2.80913 7437 ft 222 kts 86°
2026-05-08 15:39 49.03645 2.83274 8003 ft 226 kts 87°
2026-05-08 15:39 49.03763 2.85639 8559 ft 228 kts 87°
2026-05-08 15:39 49.03886 2.88063 9125 ft 231 kts 87°
2026-05-08 15:39 49.04010 2.90512 9685 ft 233 kts 87°
2026-05-08 15:40 49.04134 2.92954 10226 ft 236 kts 87°
2026-05-08 15:40 49.04279 2.95457 10770 ft 238 kts 86°
2026-05-08 15:40 49.04450 2.97998 11124 ft 249 kts 85°
2026-05-08 15:40 49.04637 3.00653 11602 ft 253 kts 85°
2026-05-08 15:41 49.04830 3.03312 12116 ft 254 kts 85°
2026-05-08 15:41 49.05025 3.05968 12598 ft 257 kts 85°
2026-05-08 15:41 49.05225 3.08677 13068 ft 259 kts 85°
2026-05-08 15:41 49.05428 3.11429 13541 ft 261 kts 85°
2026-05-08 15:42 49.05631 3.14162 13979 ft 264 kts 85°
2026-05-08 15:42 49.05839 3.16957 14410 ft 266 kts 85°
2026-05-08 15:42 49.06047 3.19758 14834 ft 268 kts 85°
2026-05-08 15:42 49.06255 3.22556 15222 ft 271 kts 84°
2026-05-08 15:43 49.06466 3.25398 15646 ft 272 kts 84°
2026-05-08 15:43 49.06680 3.28300 16031 ft 274 kts 84°
2026-05-08 15:43 49.06891 3.31163 16391 ft 277 kts 84°
2026-05-08 15:43 49.07106 3.34082 16771 ft 278 kts 84°
2026-05-08 15:44 49.07322 3.37042 17100 ft 281 kts 84°
2026-05-08 15:44 49.07535 3.39951 17474 ft 282 kts 84°
2026-05-08 15:44 49.07753 3.42951 17801 ft 285 kts 84°
2026-05-08 15:44 49.07972 3.45966 18136 ft 287 kts 84°
2026-05-08 15:45 49.08191 3.48989 18509 ft 287 kts 84°
2026-05-08 15:45 49.08409 3.52032 18783 ft 291 kts 84°
2026-05-08 15:45 49.08633 3.55149 18964 ft 299 kts 84°
2026-05-08 15:45 49.08910 3.58327 19015 ft 310 kts 82°
2026-05-08 15:46 49.09251 3.61600 19023 ft 320 kts 81°
2026-05-08 15:46 49.09609 3.65003 19021 ft 329 kts 81°
2026-05-08 15:46 49.09973 3.68471 19029 ft 337 kts 82°
2026-05-08 15:46 49.10348 3.72056 19023 ft 343 kts 82°
2026-05-08 15:47 49.10722 3.75655 19027 ft 348 kts 82°
2026-05-08 15:47 49.11101 3.79304 19019 ft 353 kts 82°
2026-05-08 15:47 49.11484 3.83013 19019 ft 356 kts 82°
2026-05-08 15:47 49.11869 3.86758 19019 ft 359 kts 82°
2026-05-08 15:48 49.12642 3.94312 19014 ft 363 kts 82°
2026-05-08 15:48 49.13027 3.98090 19017 ft 364 kts 82°
2026-05-08 15:48 49.13420 4.01927 19021 ft 365 kts 82°
2026-05-08 15:49 49.14184 4.05551 18996 ft 366 kts 61°
2026-05-08 15:49 49.15700 4.08692 19023 ft 366 kts 51°
2026-05-08 15:49 49.17301 4.11670 19030 ft 366 kts 50°
2026-05-08 15:49 49.18926 4.14678 19031 ft 367 kts 50°
2026-05-08 15:50 49.20534 4.17659 19027 ft 367 kts 50°
2026-05-08 15:50 49.22165 4.20689 19023 ft 368 kts 50°
2026-05-08 15:50 49.23785 4.23703 19023 ft 368 kts 50°
2026-05-08 15:50 49.25245 4.26911 18991 ft 369 kts 64°
2026-05-08 15:51 49.26011 4.30617 19046 ft 366 kts 76°
2026-05-08 15:51 49.26636 4.34420 19044 ft 367 kts 76°
2026-05-08 15:51 49.27244 4.38172 19028 ft 367 kts 77°
2026-05-08 15:51 49.27862 4.41997 19020 ft 368 kts 77°
2026-05-08 15:52 49.28470 4.45763 19015 ft 368 kts 77°
2026-05-08 15:52 49.29087 4.49582 19025 ft 369 kts 77°
2026-05-08 15:52 49.29696 4.53351 19021 ft 369 kts 77°
2026-05-08 15:52 49.30309 4.57153 19023 ft 369 kts 77°
2026-05-08 15:53 49.30927 4.60986 19027 ft 369 kts 77°
2026-05-08 15:53 49.31533 4.64758 19020 ft 369 kts 77°
2026-05-08 15:53 49.32151 4.68608 19025 ft 369 kts 77°
2026-05-08 15:53 49.32756 4.72385 19019 ft 369 kts 77°
2026-05-08 15:54 49.33367 4.76208 19022 ft 369 kts 77°
2026-05-08 15:54 49.33976 4.80019 19032 ft 369 kts 77°
2026-05-08 15:54 49.34578 4.83801 19032 ft 369 kts 77°
2026-05-08 15:54 49.35182 4.87606 19029 ft 369 kts 77°
2026-05-08 15:55 49.35793 4.91460 19034 ft 369 kts 77°
2026-05-08 15:55 49.36995 4.99069 19012 ft 369 kts 77°
2026-05-08 15:55 49.37598 5.02898 18665 ft 370 kts 77°
2026-05-08 15:56 49.38199 5.06705 18166 ft 370 kts 77°
2026-05-08 15:56 49.38797 5.10497 17643 ft 371 kts 77°
2026-05-08 15:56 49.39703 5.14172 17076 ft 366 kts 63°
2026-05-08 15:56 49.40952 5.17533 16526 ft 361 kts 60°
2026-05-08 15:57 49.42195 5.20809 15997 ft 352 kts 60°
2026-05-08 15:57 49.43404 5.23994 15484 ft 344 kts 60°
2026-05-08 15:57 49.44584 5.27113 14979 ft 337 kts 60°
2026-05-08 15:57 49.45755 5.30211 14467 ft 330 kts 60°
2026-05-08 15:58 49.46899 5.33231 13980 ft 324 kts 60°
2026-05-08 15:58 49.48010 5.36162 13506 ft 319 kts 60°
2026-05-08 15:58 49.49121 5.39093 13038 ft 314 kts 60°
2026-05-08 15:58 49.50212 5.41981 12570 ft 318 kts 60°
2026-05-08 15:59 49.51334 5.44955 12089 ft 321 kts 60°
2026-05-08 15:59 49.52451 5.47916 11591 ft 325 kts 60°
2026-05-08 15:59 49.53571 5.50879 11065 ft 322 kts 60°
2026-05-08 15:59 49.54697 5.53851 10565 ft 315 kts 60°
2026-05-08 16:00 49.55775 5.56692 10105 ft 309 kts 60°
2026-05-08 16:00 49.56847 5.59513 9660 ft 303 kts 60°
2026-05-08 16:00 49.57896 5.62272 9232 ft 298 kts 60°
2026-05-08 16:00 49.58938 5.65015 8803 ft 293 kts 60°
2026-05-08 16:01 49.59808 5.67770 8366 ft 287 kts 75°
2026-05-08 16:01 49.60068 5.70758 7982 ft 278 kts 88°
2026-05-08 16:01 49.60166 5.73670 7718 ft 267 kts 88°
2026-05-08 16:01 49.60251 5.76490 7390 ft 262 kts 88°
2026-05-08 16:02 49.60327 5.79266 7041 ft 258 kts 88°
2026-05-08 16:02 49.60400 5.81996 6684 ft 255 kts 88°
2026-05-08 16:02 49.60429 5.84686 6323 ft 252 kts 95°
2026-05-08 16:02 49.59873 5.87206 5966 ft 248 kts 123°
2026-05-08 16:03 49.58638 5.88959 5620 ft 244 kts 149°
2026-05-08 16:03 49.57146 5.90136 5316 ft 234 kts 153°
2026-05-08 16:03 49.55837 5.91481 5044 ft 221 kts 131°
2026-05-08 16:03 49.55197 5.93506 4768 ft 207 kts 99°
2026-05-08 16:04 49.55080 5.95646 4494 ft 198 kts 93°
2026-05-08 16:04 49.54992 5.97730 4167 ft 190 kts 93°
2026-05-08 16:04 49.54916 5.99704 3813 ft 183 kts 88°
2026-05-08 16:04 49.55348 6.01419 3522 ft 167 kts 52°
2026-05-08 16:05 49.55921 6.02850 3354 ft 152 kts 68°
2026-05-08 16:05 49.56354 6.04277 3265 ft 147 kts 62°
2026-05-08 16:05 49.56885 6.05673 3081 ft 149 kts 61°
2026-05-08 16:05 49.57381 6.07030 2844 ft 142 kts 61°
2026-05-08 16:06 49.57849 6.08291 2674 ft 134 kts 61°
2026-05-08 16:06 49.58295 6.09521 2578 ft 131 kts 61°
2026-05-08 16:06 49.58752 6.10747 2368 ft 130 kts 60°
2026-05-08 16:06 49.59196 6.11927 2171 ft 126 kts 60°
2026-05-08 16:07 49.59639 6.13089 2055 ft 124 kts 62°
2026-05-08 16:07 49.60074 6.14257 1925 ft 129 kts 63°
2026-05-08 16:07 49.60511 6.15472 1687 ft 130 kts 62°
2026-05-08 16:07 49.60966 6.16653 1487 ft 128 kts 60°
2026-05-08 16:08 49.61414 6.17840 1332 ft 130 kts 60°
2026-05-08 16:08 49.61859 6.19035 1187 ft 125 kts 61°
2026-05-08 16:08 49.62215 6.20013 1212 ft 77 kts 59°
2026-05-08 16:08 49.62411 6.20516 1229 ft 24 kts 55°
2026-05-08 16:09 49.62489 6.20590 1232 ft 9 kts 18°
2026-05-08 16:09 49.62563 6.20636 1233 ft 11 kts 22°
2026-05-08 16:09 49.62628 6.20675 1235 ft 9 kts 20°
2026-05-08 16:09 49.62700 6.20718 1236 ft 13 kts 20°
2026-05-08 16:10 49.62799 6.20779 1237 ft 13 kts 36°
2026-05-08 16:10 49.62838 6.20885 1237 ft 9 kts 68°
2026-05-08 16:10 49.62878 6.21003 1236 ft 15 kts 63°
2026-05-08 16:10 49.62932 6.21176 1235 ft 20 kts 65°
2026-05-08 16:11 49.62987 6.21353 1233 ft 16 kts 65°
2026-05-08 16:11 49.63034 6.21508 1231 ft 16 kts 63°
2026-05-08 16:11 49.63089 6.21635 1229 ft 12 kts 14°
2026-05-08 16:11 49.63163 6.21589 1230 ft 10 kts 329°
2026-05-08 16:12 49.63210 6.21544 1231 ft 3 kts 301°
2026-05-08 16:12 49.63204 6.21511 1231 ft 3 kts 236°
2026-05-08 16:12 49.63193 6.21484 1232 ft 0 kts 240°
2026-05-08 16:12 49.63191 6.21478 1232 ft 0 kts 240°